Location: Chippewa Lake
(41.0698°N, 81.9010°W)
Time: 01:27:33
(UTC+00:00)

Cosmos 1674 - Pass Details

Date: 09 May 2021
Orbit: 492 x 517 km, 82.5° (Epoch: 24 June)

Event Time Altitude Azimuth Distance (km) Brightness Sun altitude
Exits shadow 08:21:42 42° 262° (W) 754 3.1 -18.5°
Maximum altitude 08:22:06 43° 281° (WNW) 734 3.2 -18.4°
Drops below altitude 10° 08:25:47 10° 354° (N) 1,755 5.9 -17.9°
Sets 08:28:01 0° 1° (N) 2,645 7.0 -17.6°
